Location: *
(48.4333°N, 5.0333°W)
Time: 03:50:36
(UTC+00:00)

Cosmos 864 Rocket - Pass Details

Date: 09 April 2020
Orbit: 953 x 992 km, 82.9° (Epoch: 02 June)

Event Time Altitude Azimuth Distance (km) Brightness Sun altitude
Rises 21:07:51 0° 350° (N) 3,679 8.3 -19.4°
Reaches altitude 10° 21:10:22 10° 350° (N) 2,722 7.5 -19.7°
Maximum altitude 21:16:37 87° 264° (W) 970 4.4 -20.5°
Enters shadow 21:20:11 27° 175° (S) 1,749 5.4 -21.0°
